Location: Ferchesar
(52.6477°N, 12.4298°E)
Time: 12:07:36
(UTC+01:00)

Transit 2A - Pass Details

Date: 07 December 2021
Orbit: 591 x 967 km, 66.7° (Epoch: 23 January)

Event Time Altitude Azimuth Distance (km) Brightness Sun altitude
Exits shadow 03:18:12 18° 26° (NNE) 2,210 8.7 -42.2°
Drops below altitude 10° 03:20:18 10° 42° (NE) 2,715 9.3 -41.9°
Sets 03:23:27 0° 56° (NE) 3,662 10.3 -41.5°
